Volver al catálogo

STARLINK-31232

ActivoComunicacionesVLEO
NORAD 58831·PAYLOAD·🇺🇸 United States

Lanzado Jan 24, 2024 desde Vandenberg Space Force Base

Loading…

Próximos Pases (próximas 24 horas)

TLE

ActualizadoSource: CelesTrak SupGP

Época: Sep 15, 2026, 03:14 UTC

1 58831C 24017F   26258.13520833  .00000638  00000+0  20521-4 0  2585
2 58831  53.1597  42.5938 0001199  90.3458 359.9442 15.31694573    18

Sigue STARLINK-31232 en tiempo real con AllMySat

Download on the App Store